Regional Weather Roundup
Issued by NWS Wakefield, VA

Home | Current Version | Previous Version | Graphics & Text | Print | Product List | Glossary On
Versions: 1 2 3 4 5 6 7 8 9 10 11 12 13 14 15 16 17 18 19 20 21 22 23 24 25 26 27 28 29 30 31 32 33 34 35 36 37 38 39 40 41 42 43 44 45 46 47 48 49 50
089
ASUS41 KAKQ 280715
RWRAKQ

REGIONAL WEATHER ROUNDUP
NATIONAL WEATHER SERVICE WAKEFIELD VA
300 AM EDT SUN MAY 28 2017

Note: "fair" indicates few or no clouds below 12,000 feet with no
significant weather and/or obstructions to visibility. * = Denotes
station may not report precipitation (e.g., rain,snow,etc.),
thunder or fog.

VAZ042-051-052>054-056-280800-
NORTHERN VIRGINIA

CITY           SKY/WX    TMP DP  RH WIND       PRES   REMARKS
WASH NATIONAL  CLOUDY    64  62  93 E3        29.88F
DULLES         PTCLDY    58  57  97 E5        29.88F
FORT BELVOIR   CLOUDY    60  58  93 CALM      29.88S
QUANTICO       PTCLDY    65  63  93 E6        29.89S
FREDERICKSBRG* CLOUDY    62  62 100 CALM      29.87F
STAFFORD*      MOCLDY    58  58 100 CALM      29.92S
WARRENTON      PTCLDY    62  59  90 CALM      29.88R FOG
CULPEPER*      CLOUDY    62  61  99 CALM      29.89S FOG
MANASSAS*      CLOUDY    60  59  96 S5        29.89R
LEESBURG*      CLEAR     61  61 100 NE3       29.89F FOG
WINCHESTER     FOG       59  59 100 NE3       29.87F VSB 1/4
FRONT ROYAL*   MOSUNNY   61  61 100 CALM      29.87F
LURAY*         CLOUDY    63  63 100 N3        29.87F
$$

VAZ048-049-060>072-079>083-280800-
CENTRAL AND SOUTH CENTRAL VIRGINIA

CITY           SKY/WX    TMP DP  RH WIND       PRES   REMARKS
RICHMOND       CLOUDY    66  64  93 NE6       29.85F FOG
CHESTERFIELD*  NOT AVBL
PETERSBURG*    PTCLDY    61  60  98 CALM      29.85F FOG
HANOVER        MOCLDY    62  60  93 CALM      29.86F FOG
TAPPAHANNOCK*  MOCLDY    63  63 100 CALM      29.87F
QUINTON*       FOG       64  64 100 CALM      29.84F VSB 1/4
CHARLOTTSVILLE CLOUDY    64  63  96 CALM      29.88S FOG
GORDONSVILLE*  CLOUDY    61  61 100 CALM      29.87F
ORANGE*        CLOUDY    61  59  94 CALM      29.88S
LOUISA*        CLOUDY    63  63 100 CALM      29.86F
BUMPASS*       FAIR      60  60 100 CALM      29.87S
FARMVILLE*     CLOUDY    68  65  89 N6        29.84F
CREWE*         FAIR      64  59  86 CALM      29.85F
FORT PICKETT*  FAIR     N/A N/A N/A NW7       29.85F
CHASE CITY*    FAIR      67  66  94 CALM      29.83F
CLARKSVILLE*   FAIR      70  70 100 CALM      29.82F
SOUTH HILL*    CLOUDY    67  65  91 CALM      29.88F
LAWRENCEVILLE* FAIR      67  64  89 CALM      29.84F
EMPORIA*       CLOUDY    66  63  88 CALM      29.84F
$$

VAZ088>098-280800-
SOUTHEAST VIRGINIA

CITY           SKY/WX    TMP DP  RH WIND       PRES   REMARKS
NORFOLK        CLOUDY    70  62  76 N5        29.83F
VIRGINIA BEACH CLOUDY    65  60  84 CALM      29.82F
NORFOLK NAVAL  MOCLDY    68  63  84 N3        29.84F
WEST POINT*    PTCLDY    63  62  97 CALM      29.86F
SALUDA*        FAIR      65  65 100 NE3       29.86F
NEWPORT NEWS   FOG       63  62  97 CALM      29.84F VSB 1/4
LANGLEY AFB    CLEAR     65  64  98 N3        29.83F
FORT EUSTIS    PTCLDY    65  62  91 CALM      29.82F
WILLIAMSBURG*  PTCLDY    66  66 100 CALM      29.85F
HR EXEC AP*    FAIR      63  57  82 CALM      29.82F
FRANKLIN*      CLOUDY    64  63  96 CALM      29.85F
US460-WAKEFLD  NOT AVBL
$$

VAZ020-022-025-037-045-280800-
WEST CENTRAL AND SOUTHWEST VIRGINIA

CITY           SKY/WX    TMP DP  RH WIND       PRES   REMARKS
STAUNTON*      CLOUDY    62  60  94 CALM      29.91F
WAYNESBORO*    PTSUNNY   63  63 100 CALM      29.90F
HOT SPRINGS VA MOCLDY    63  59  88 CALM      29.98F
LYNCHBURG      CLOUDY    66  63  90 NE8       29.87F
DANVILLE       CLOUDY    69  64  84 NW7       29.84F
SOUTH BOSTON*  FAIR      67  66  96 CALM      29.82F
MARTINSVILLE   CLOUDY    66  60  80 CALM      29.88F
ROANOKE        MOCLDY    69  66  90 S5        29.88F
BLACKSBURG     CLOUDY    63  61  92 N3        29.94F
DUBLIN*        CLOUDY    63  59  87 NE3       29.92F
MARION*        LGT RAIN  61  58  90 CALM      29.96R
HILLSVILLE*    LGT RAIN  59  55  87 CALM      29.91F
RICHLANDS*     FAIR      59  59 100 CALM      29.92F
WISE*          CLOUDY    61  61 100 CALM      29.96S
ABINGDON*      CLOUDY    63  63  99 N3        29.91R
$$

MDZ021>025-VAZ099-100-280800-
SOUTHERN MARYLAND AND THE DELMARVA PENINSULA

CITY           SKY/WX    TMP DP  RH WIND       PRES   REMARKS
PATUXENT RIVER CLOUDY    64  61  90 SE8       29.87S
BAY BRIDGE APT CLEAR     61  57  88 CALM      29.88F
LEONARDTOWN    PTCLDY    61  59  94 CALM      29.90R
DOVER          CLOUDY    60  60 100 CALM      29.88F
GEORGETOWN     CLOUDY    62  56  80 CALM      29.89F
EASTON         CLEAR     61  56  82 SE3       29.92S
CAMBRIDGE      MOCLDY    61  57  88 CALM      29.88S
SALISBURY      CLOUDY    59  56  89 E3        29.88S
OCEAN CITY     CLOUDY    61  57  87 SE3       29.89F
WALLOPS ISLAND CLOUDY    63  59  87 E7        29.88S
ACCOMACK*      CLOUDY    62  60  93 E5        29.87S
$$

NCZ012>017-030>032-280800-
NORTH CENTRAL AND EASTERN NORTH CAROLINA

CITY           SKY/WX    TMP DP  RH WIND       PRES   REMARKS
ROANOKE RAPIDS FAIR      70  63  78 CALM      29.82F
RALEIGH        MOCLDY    68  67  96 NW3       29.84R
ELIZABETH CITY CLOUDY    70  68  93 NE7       29.84F
AHOSKIE*       NOT AVBL
EDENTON*       CLOUDY    73  67  81 S7        29.84F
CURRITUCK*       N/A    N/A N/A N/A CALM      29.85
KILL DEVIL HLS CLOUDY    68  66  92 CALM      29.83S
MANTEO         CLOUDY    70  64  80 SW6       29.84F
CAPE HATTERAS  PTCLDY    74  67  78 SW6       29.86F
TARBORO*       NOT AVBL
GOLDSBORO      CLOUDY    73  72  96 S8        29.82F
WASHINGTON     PTCLDY    70  69  96 SE3       29.85F
GREENVILLE     PTCLDY    73  70  88 S3        29.86F
NEW BERN       CLEAR     71  69  93 SW6       29.86F
WILMINGTON     PTCLDY    74  70  87 SW3       29.88F
$$

VAZ048-280800-
ELSEWHERE

CITY           SKY/WX    TMP DP  RH WIND       PRES   REMARKS
HARRISBURG PA  PTCLDY    58  57  97 CALM      29.88F FOG
BALTIMORE      PTCLDY    59  59 100 CALM      29.88S
ANNAPOLIS      CLEAR     64  62  93 CALM      29.88S
ANDREWS AFB    CLOUDY    60  59  97 NE6       29.87F
PHILADELPHIA   PTCLDY    62  60  93 CALM      29.88F
HENDERSON NC   MOCLDY    65  64  96 CALM      29.82F
GREENSBORO     CLOUDY    66  66 100 W6        29.87F THUNDER
ROCKY MOUNT    CLOUDY    71  69  93 S6        29.82F
$$

VAZ100-280800-
MARINE

STATION/POSITION TIME  TEMP    WIND        PRES    WAVE   SWELL
                       AIR SEA DIR/SP/G            HT/PER HT/PER
                 (UTC) (F)     (DEG/KT/KT) (MB)    (FT/S) (FT/S)
CAPE MAY NJ      0648   61 63  110/  2/  3 1012.0F
LEWES DE         0642   63 65  150/  2/  3 1011.9F
15NM E FENWICK I 0550   61 60  120/  4/  6 1012.9    2/ 8   2/ 8
WACHAPREAGUE VA  0648   64 71   70/  6/  9 1011.1F
THOMAS POINT MD  0700   63 65  110/  7/  8   N/A
GOOSES REEF MD   0650   66     120/  8/ 10 1012.3R
COVE POINT MD    0648   65     160/  9/ 12 1012.2S
SOLOMONS ISLAND  0648   66 68  120/  7/  8   N/A
BISHOPS HEAD MD  0648   64 71   90/  8/ 12 1011.8S
PINEY POINT MD   0648          130/  9/ 10   N/A
POTOMAC MD       0650   66     120/ 10/ 12 1010.6F
CAMBRIDGE MD     0642   64 70                N/A
LEWISETTA VA     0648   67 70  100/ 10/ 12 1011.1F
RAPPAHANNOCK LGT 0648           60/  8/  9 1011.7F
STINGRAY PT      0650   66     120/  4/  6 1010.8F
YORK RVR RNG VA  0648   68      50/  7/  8 1010.1F
YORKTOWN VA      0648   68 70   50/  5/  5 1010.3F
JAMESTOWN VA     0650   67      80/  4/  6   N/A
DOMINION TERM VA 0648   69      30/  5/  7 1010.3F
KIPTOPEKE VA     0642      68   70/  4/  7   N/A
CHES BAY BRIDGE  0648   68 67  330/  7/  8 1010.3F
CAPE HENRY VA    0648   69     300/  7/  7   N/A
WILLOUBY STN VA  0648   69     360/  7/  8 1010.1F
S CRANEY ISL VA  0648   70     360/  5/  5 1010.2F
CAPE HENRY BUOY  0642      67                N/A     2/ 8
1ST LANDING BUOY 0650   67                 1010.8F
CAPE CHARLES BUO 0651      66                N/A     2/ 8
64NM E OF VA BCH 0650   69 64  260/ 14/ 16 1010.6F   3/ 5   2/ 8
DUCK PIER NC     0648   71 66   10/  6/  8 1010.4R
44100 DUCK FRF   0635      66                N/A     2/ 8
44056 DUCK FRF   0630      67                N/A     1/ 7
OREGON INLET NC  0642   74 72  200/  6/  7 1010.7F
HATTERAS NC      0642   76 74  180/  2/  5 1011.3F
DIAMOND SHLS NC  0650   76 77  240/ 10/ 10 1011.5F   3/ 6   3/ 6
CAPE LOOKOUT NC  0700   75     240/ 10/ 13 1010.9F
$$




USA.gov is the U.S. government's official web portal to all federal, state and local government web resources and services.